Stations météo

réclame
Mon MeteoGroup
Lyon/Satolas, France (7481): Température de l'air & dewpoint: 14.07.2019 16:00:00 - 20.07.2019 16:00:00 (CEST)Lyon/Satolas, France (7481): Température de l'air 5cm: 14.07.2019 16:00:00 - 20.07.2019 16:00:00 (CEST)Lyon/Satolas, France (7481): Température de l'air -20cm & Température de l'air -100cm: 14.07.2019 16:00:00 - 20.07.2019 16:00:00 (CEST)Lyon/Satolas, France (7481): Vitesse du vent & gusts: 14.07.2019 16:00:00 - 20.07.2019 16:00:00 (CEST)Lyon/Satolas, France (7481): Direction du vent: 14.07.2019 16:00:00 - 20.07.2019 16:00:00 (CEST)Lyon/Satolas, France (7481): reduced air pressure: 14.07.2019 16:00:00 - 20.07.2019 16:00:00 (CEST)Lyon/Satolas, France (7481): visibility: 14.07.2019 16:00:00 - 20.07.2019 16:00:00 (CEST)Lyon/Satolas, France (7481): Quantités de précipitations: 14.07.2019 16:00:00 - 20.07.2019 16:00:00 (CEST)
Date & Time tt [°C] td [°C] tt 5cm [°C] tt -20cm [°C] tt -100cm [°C] ff [km/h] ff [knt] fx [km/h] fx [knt] dd ppp [hPa] vv [km] rr [mm]
20.07.2019 16:00:00 30,5 9,4 31,6 28,1 23,2 21 11 55 30 S 1014,7 40 0,0
20.07.2019 15:00:00 29,5 10,1 32,0 27,7 23,2 31 17 54 29 SSW 1014,8 40 0,0
20.07.2019 14:00:00 28,9 11,0 29,0 27,5 23,2 28 15 42 23 S 1015,5 20 0,0
20.07.2019 13:00:00 28,2 11,7 29,8 27,1 23,2 28 15 47 26 S 1015,8 40 0,0
20.07.2019 12:00:00 30,0 11,5 34,3 26,8 23,2 29 16 46 25 SSW 1015,8 40 0,0
20.07.2019 11:00:00 28,3 10,5 31,7 26,6 23,2 31 17 53 29 S 1015,5 40 0,0
20.07.2019 10:00:00 26,6 10,7 28,0 26,7 23,2 25 14 49 27 S 1015,9 50 0,0
20.07.2019 09:00:00 24,7 12,6 27,0 26,8 23,2 22 12 44 24 S 1015,0 50 0,0
20.07.2019 08:00:00 23,4 13,8 22,6 27,0 23,1 14 8 34 18 SE 1014,5 50 0,0
20.07.2019 07:00:00 22,1 14,0 21,2 27,3 23,1 18 10 30 16 SSE 1014,1 50 0,0
20.07.2019 06:00:00 22,4 14,0 21,0 27,6 23,2 17 9 32 18 SSE 1014,1 50 0,0
20.07.2019 05:00:00 22,3 12,3 20,9 27,9 23,1 13 7 33 18 SE 1014,0 50 0,0
20.07.2019 04:00:00 22,9 11,3 20,0 28,3 23,1 21 11 37 20 SSE 1013,7 50 0,0
20.07.2019 03:00:00 23,5 10,2 20,5 28,7 23,1 19 10 33 18 SSE 1013,4 50 0,0
20.07.2019 02:00:00 24,8 11,0 22,4 29,0 23,1 13 7 40 22 SE 1013,1 50 0,0
20.07.2019 01:00:00 23,7 12,7 22,4 29,4 23,1 14 8 25 13 SSE 1013,5 50 0,0
20.07.2019 00:00:00 24,6 12,5 23,3 29,8 23,1 18 10 26 14 SE 1013,5 50 0,0
19.07.2019 23:00:00 25,9 11,6 23,8 30,1 23,1 15 8 40 21 SE 1013,3 50 0,0
19.07.2019 22:00:00 26,4 12,5 24,3 30,4 23,1 10 5 23 12 E 1013,0 60 0,0
19.07.2019 21:00:00 28,2 11,7 27,7 30,6 23,1 9 5 20 11 E 1012,7 60 0,0
19.07.2019 20:00:00 29,5 10,1 31,5 30,5 23,1 11 6 26 14 NE 1012,7 60 0,0
19.07.2019 19:00:00 30,1 10,6 33,8 30,3 23,1 5 3 22 12 E 1012,8 60 0,0
19.07.2019 18:00:00 30,3 9,8 37,5 29,7 23,1 8 4 21 12 S 1013,1 60 0,0
19.07.2019 17:00:00 29,8 10,8 38,5 29,1 23,1 6 3 24 13 W 1013,5 60 0,0
19.07.2019 16:00:00 29,6 10,2 37,0 28,3 23,1 8 5 20 11 W 1014,1 60 0,0
19.07.2019 15:00:00 28,2 11,3 36,1 27,5 23,1 7 4 22 12 WNW 1014,7 60 0,0
19.07.2019 14:00:00 27,1 11,6 35,4 26,8 23,1 11 6 31 17 NNW 1015,5 50 0,0
19.07.2019 13:00:00 26,2 11,9 35,0 26,2 23,1 8 4 24 13 N 1016,2 41 0,0
19.07.2019 12:00:00 25,0 12,9 33,8 25,8 23,1 10 5 28 15 NNE 1016,6 50 0,0
19.07.2019 11:00:00 23,8 13,1 30,3 25,5 23,1 14 8 27 14 N 1017,1 50 0,0
19.07.2019 10:00:00 22,5 12,4 30,8 25,4 23,1 9 5 20 11 N 1017,4 50 0,0
19.07.2019 09:00:00 21,6 12,2 27,3 25,5 23,1 10 5 18 10 NNE 1017,5 50 0,0
19.07.2019 08:00:00 20,2 12,4 19,0 25,7 23,1 9 5 12 7 N 1017,4 50 0,0
19.07.2019 07:00:00 17,6 11,4 12,2 26,0 23,1 2 1 5 3 NW 1017,4 40 0,0
19.07.2019 06:00:00 17,8 10,7 12,5 26,3 23,0 5 3 9 5 NE 1017,2 40 0,0
19.07.2019 05:00:00 18,1 10,7 13,4 26,7 23,1 7 4 9 5 ESE 1017,1 40 0,0
19.07.2019 04:00:00 18,1 10,5 11,8 27,1 23,0 8 5 10 5 E 1016,9 40 0,0
19.07.2019 03:00:00 18,6 10,2 12,7 27,5 23,1 5 3 16 9 WNW 1016,8 34 0,0
19.07.2019 02:00:00 19,2 10,2 12,9 27,9 23,1 4 2 10 6 W 1016,5 10 0,0
19.07.2019 01:00:00 19,7 10,4 15,0 28,2 23,0 11 6 19 11 NNW 1016,2 40 0,0
19.07.2019 00:00:00 20,8 10,3 18,0 28,7 23,0 10 5 22 12 NNW 1015,7 38 0,0
18.07.2019 23:00:00 21,9 10,7 18,7 29,0 23,1 11 6 22 12 N 1015,2 40 0,0
18.07.2019 22:00:00 23,3 10,7 20,9 29,3 23,0 14 7 22 12 NNE 1014,7 40 0,0
18.07.2019 21:00:00 25,6 8,6 25,1 29,5 23,0 13 7 31 17 N 1013,5 40 0,0
18.07.2019 20:00:00 27,1 8,5 28,2 29,6 23,0 21 11 39 21 N 1012,8 40 0,0
18.07.2019 19:00:00 28,2 9,5 31,9 29,5 23,0 23 12 33 18 N 1012,2 40 0,0
18.07.2019 18:00:00 28,5 10,2 33,1 29,2 23,0 24 13 36 19 N 1012,0 40 0,0
18.07.2019 17:00:00 29,3 8,4 33,5 28,8 23,0 9 5 32 18 N 1011,9 40 0,0
18.07.2019 16:00:00 29,1 9,8 36,5 28,3 23,0 14 8 28 15 NNE 1012,2 40 0,0
18.07.2019 15:00:00 28,7 8,9 35,9 27,7 23,0 13 7 29 16 N 1012,2 40 0,0
18.07.2019 14:00:00 28,4 8,1 37,7 27,0 23,0 13 7 32 17 NW 1012,6 40 0,0
18.07.2019 13:00:00 27,6 9,4 37,1 26,4 23,0 12 7 25 14 NNW 1012,9 40 0,0
18.07.2019 12:00:00 26,3 10,0 35,9 26,0 23,0 13 7 22 12 NNW 1013,5 40 0,0
18.07.2019 11:00:00 24,6 10,5 32,2 25,7 23,0 11 6 23 12 WNW 1013,6 40 0,0
18.07.2019 10:00:00 22,8 10,6 28,5 25,7 23,0 9 5 19 10 N 1013,9 40 0,0
18.07.2019 09:00:00 21,7 9,9 27,2 25,8 23,0 10 5 18 10 N 1013,9 50 0,0
18.07.2019 08:00:00 20,1 9,6 19,1 25,9 22,9 2 1 16 8 N 1013,7 50 0,0
18.07.2019 07:00:00 17,9 10,0 12,1 26,3 22,9 7 4 11 6 ESE 1013,6 50 0,0
18.07.2019 06:00:00 17,2 9,1 11,4 26,7 22,9 4 2 10 5 SW 1013,4 60 0,0
18.07.2019 05:00:00 17,7 9,3 11,6 27,1 22,9 2 1 5 3 SW 1012,9 60 0,0
18.07.2019 04:00:00 18,9 9,9 12,6 27,4 22,9 0 0 8 4 N 1012,7 60 0,0
18.07.2019 03:00:00 19,5 8,5 13,2 27,8 22,9 3 2 5 3 W 1012,8 60 0,0
18.07.2019 02:00:00 21,3 9,8 15,7 28,2 22,9 2 1 9 5 W 1012,8 60 0,0
18.07.2019 01:00:00 22,4 7,8 16,3 28,6 22,9 5 3 8 4 SSW 1012,7 60 0,0
18.07.2019 00:00:00 22,1 8,6 16,2 29,0 22,9 2 1 13 7 E 1012,4 60 0,0
17.07.2019 23:00:00 23,6 8,4 21,4 29,4 22,9 10 5 15 8 N 1012,1 60 0,0
17.07.2019 22:00:00 24,6 9,7 22,2 29,7 22,9 11 6 17 9 N 1011,8 50 0,0
17.07.2019 21:00:00 27,3 9,2 25,6 30,0 22,9 8 4 21 11 NE 1010,9 50 0,0
17.07.2019 20:00:00 28,7 8,4 30,7 30,0 22,9 15 8 32 17 NE 1010,7 50 0,0
17.07.2019 19:00:00 29,3 8,4 33,5 29,8 22,9 13 7 27 15 NNE 1010,6 50 0,0
17.07.2019 18:00:00 29,7 8,1 37,2 29,4 22,9 15 8 31 17 N 1010,9 50 0,0
17.07.2019 17:00:00 29,7 8,1 38,9 28,7 22,9 18 10 32 17 N 1011,4 50 0,0
17.07.2019 16:00:00 29,6 7,5 39,4 27,9 22,9 17 9 32 18 N 1011,8 50 0,0
17.07.2019 15:00:00 29,0 7,5 37,8 27,1 22,9 11 6 29 16 N 1012,4 50 0,0
17.07.2019 14:00:00 28,0 7,3 36,9 26,4 22,9 9 5 28 15 N 1012,9 50 0,0
17.07.2019 13:00:00 26,8 10,1 34,9 25,7 22,9 11 6 25 14 N 1013,6 50 0,0
17.07.2019 12:00:00 24,9 10,7 34,2 25,2 22,9 9 5 24 13 N 1014,1 50 0,0
17.07.2019 11:00:00 23,3 10,7 30,0 25,0 22,9 5 3 18 10 N 1014,6 50 0,0
17.07.2019 10:00:00 21,5 10,3 27,1 24,9 22,9 9 5 21 12 NNW 1014,8 50 0,0
17.07.2019 09:00:00 20,0 9,8 25,9 25,0 22,9 10 6 17 9 N 1015,2 50 0,0
17.07.2019 08:00:00 19,0 9,7 18,9 25,2 22,9 10 5 17 9 NNW 1015,1 60 0,0
17.07.2019 07:00:00 17,1 9,8 10,5 25,6 22,9 0 0 6 3 N 1014,9 60 0,0
17.07.2019 06:00:00 16,2 9,4 10,9 25,9 22,9 4 2 8 4 W 1015,1 60 0,0
17.07.2019 05:00:00 16,8 9,2 11,4 26,3 22,9 5 3 12 6 WSW 1014,7 50 0,0
17.07.2019 04:00:00 17,9 9,3 10,9 26,7 22,9 7 4 9 5 NNW 1014,7 60 0,0
17.07.2019 03:00:00 18,5 8,7 11,6 27,1 22,9 4 2 7 4 WNW 1015,1 60 0,0
17.07.2019 02:00:00 19,2 8,8 12,5 27,5 22,9 6 3 8 5 W 1015,3 60 0,0
17.07.2019 01:00:00 19,9 8,9 12,9 28,0 22,9 3 1 9 5 W 1014,9 60 0,0
17.07.2019 00:00:00 20,4 9,3 13,1 28,4 22,9 3 2 6 3 ENE 1014,6 60 0,0
16.07.2019 23:00:00 22,2 8,7 14,1 28,8 22,9 5 3 26 14 N 1014,6 60 0,0
16.07.2019 22:00:00 24,1 9,3 20,7 29,1 22,9 13 7 18 10 NNE 1014,2 60 0,0
16.07.2019 21:00:00 26,2 8,2 25,8 29,3 22,9 10 5 24 13 N 1013,9 60 0,0
16.07.2019 20:00:00 28,0 8,3 32,1 29,4 22,9 18 10 27 15 NNE 1013,5 60 0,0
16.07.2019 19:00:00 28,8 8,5 33,3 29,2 22,9 13 7 27 15 NNE 1013,4 50 0,0
16.07.2019 18:00:00 28,7 8,9 35,7 28,8 22,9 16 8 29 15 NNW 1013,8 50 0,0
16.07.2019 17:00:00 28,7 8,9 37,8 28,2 22,9 14 8 29 16 N 1014,0 50 0,0
16.07.2019 16:00:00 28,2 9,5 36,5 27,5 22,9 13 7 35 19 NW 1014,3 50 0,0
16.07.2019 15:00:00 27,3 10,1 37,0 26,6 22,9 12 6 46 25 N 1014,6 40 0,0
16.07.2019 14:00:00 26,4 11,3 35,7 25,9 22,9 17 9 32 18 NNW 1015,1 40 0,0
16.07.2019 13:00:00 25,1 12,0 35,2 25,2 22,9 18 10 32 17 N 1015,6 40 0,0
16.07.2019 12:00:00 23,6 12,3 33,0 24,7 22,9 12 7 22 12 NW 1016,2 40 0,0
16.07.2019 11:00:00 21,7 12,5 29,4 24,4 23,0 11 6 24 13 N 1016,6 40 0,0
16.07.2019 10:00:00 19,9 11,9 28,5 24,4 22,9 8 4 19 11 NNW 1017,0 30 0,0
16.07.2019 09:00:00 18,3 11,6 23,3 24,4 22,9 7 4 16 9 NNW 1017,2 30 0,0
16.07.2019 08:00:00 17,2 11,2 18,1 24,7 22,9 10 5 17 9 NNW 1017,1 30 0,0
16.07.2019 07:00:00 15,9 10,9 13,0 25,0 22,9 8 4 14 7 N 1016,8 30 0,0
16.07.2019 06:00:00 15,1 10,5 10,9 25,2 22,9 11 6 16 9 NNW 1016,5 30 0,0
16.07.2019 05:00:00 15,7 10,5 12,3 25,6 22,9 9 5 17 9 NW 1016,2 30 0,0
16.07.2019 04:00:00 16,3 10,6 11,8 25,9 22,9 0 0 11 6 N 1016,3 30 0,0
16.07.2019 03:00:00 17,2 10,6 15,1 26,3 22,9 9 5 13 7 N 1016,1 30 0,0
16.07.2019 02:00:00 18,4 11,0 16,7 26,6 23,0 6 3 16 9 N 1015,8 30 0,0
16.07.2019 01:00:00 19,0 11,3 16,9 26,9 22,9 14 8 21 11 N 1015,7 30 0,0
16.07.2019 00:00:00 20,1 11,0 17,8 27,2 23,0 16 9 24 13 N 1015,5 30 0,0
15.07.2019 23:00:00 21,2 10,7 19,5 27,5 23,0 16 8 27 14 N 1015,0 30 0,0
15.07.2019 22:00:00 22,4 10,5 21,4 27,8 22,9 21 11 36 20 N 1014,3 30 0,0
15.07.2019 21:00:00 23,9 10,2 23,9 28,0 23,0 24 13 46 25 N 1013,7 30 0,0
15.07.2019 20:00:00 24,8 9,9 27,6 28,1 23,0 33 18 62 33 N 1013,0 30 0,0
15.07.2019 19:00:00 25,4 10,0 28,4 27,9 22,9 39 21 60 32 N 1012,5 30 0,0
15.07.2019 18:00:00 25,5 10,1 29,1 27,6 22,9 40 22 60 32 N 1012,3 30 0,0
15.07.2019 17:00:00 25,6 10,2 29,4 27,1 23,0 38 20 60 33 N 1012,2 30 0,0
15.07.2019 16:00:00 25,5 10,5 31,2 26,5 23,0 35 19 59 32 N 1012,2 30 0,0
15.07.2019 15:00:00 24,3 10,9 27,9 26,0 23,0 39 21 58 31 N 1012,2 30 0,0
15.07.2019 14:00:00 23,4 11,4 25,4 25,6 23,0 35 19 55 30 N 1012,2 30 0,0
15.07.2019 13:00:00 21,4 11,7 25,3 25,2 22,9 30 16 46 25 N 1012,8 30 0,0
15.07.2019 12:00:00 20,6 12,3 21,7 25,0 23,0 27 15 44 24 NNW 1013,0 30 0,0
15.07.2019 11:00:00 18,5 11,3 21,4 24,9 22,9 26 14 42 23 N 1013,5 30 0,0
15.07.2019 10:00:00 17,6 11,6 17,4 25,0 22,9 27 15 44 24 NNW 1013,4 30 0,0
15.07.2019 09:00:00 15,8 12,0 16,1 25,2 22,9 26 14 39 21 N 1013,7 30 0,0
15.07.2019 08:00:00 15,3 12,2 15,5 25,4 22,9 24 13 48 26 N 1013,7 30 0,0
15.07.2019 07:00:00 15,1 12,2 14,0 25,7 22,9 24 13 37 20 NNW 1013,5 25 0,0
15.07.2019 06:00:00 14,6 12,1 13,9 26,0 22,9 18 10 36 19 N 1013,6 30 0,0
15.07.2019 05:00:00 14,8 12,1 14,2 26,4 22,9 25 13 40 21 NNW 1013,2 40 0,0
15.07.2019 04:00:00 15,3 11,9 14,1 26,8 22,9 19 11 29 16 NNW 1013,6 50 0,0
15.07.2019 03:00:00 15,8 11,2 13,5 27,1 22,9 14 7 20 11 N 1013,6 50 0,0
15.07.2019 02:00:00 17,0 10,8 16,0 27,5 22,9 10 6 39 21 N 1013,3 52 0,0
15.07.2019 01:00:00 18,0 10,6 17,3 27,9 22,9 26 14 41 22 NNW 1013,1 50 0,0
15.07.2019 00:00:00 18,6 10,9 17,7 28,3 22,9 20 11 44 24 N 1013,1 50 0,0
14.07.2019 23:00:00 19,6 10,8 19,0 28,7 22,9 30 16 44 24 NNW 1012,7 50 0,0
14.07.2019 22:00:00 20,9 10,7 20,2 29,0 22,9 27 15 46 25 N 1012,2 50 0,0
14.07.2019 21:00:00 22,4 11,5 22,3 29,3 22,9 36 19 56 30 N 1011,9 50 0,0
14.07.2019 20:00:00 24,7 10,9 27,2 29,5 22,9 34 18 55 30 N 1011,2 50 0,0
14.07.2019 19:00:00 25,5 9,3 27,2 29,4 22,9 27 15 45 24 N 1010,8 50 0,0
14.07.2019 18:00:00 26,2 9,1 28,9 29,1 22,9 27 15 50 27 N 1010,8 50 0,0
14.07.2019 17:00:00 26,8 9,6 33,5 28,5 22,9 27 14 44 24 NNW 1010,9 50 0,0
14.07.2019 16:00:00 26,3 9,2 32,2 27,8 22,9 23 12 44 24 N 1011,3 50 0,0

tt = Température de l'air
td = dewpoint
tt 5cm = Température de l'air 5cm
tt -20cm = Température de l'air -20cm
tt -100cm = Température de l'air -100cm
ff = Vitesse du vent
fx = gusts
dd = Direction du vent
ppp = reduced air pressure
vv = visibility
rr = Quantités de précipitations

stations d'obs. à proximité